CZ-6A DEB, 54526

Orbit data source: Space-Track

CZ-6A DEB, 54526 is space debris in SSO originally from a launch on Fri, 11 Nov 2022 UTC launched from the Taiyaun Space Center, China (TSC). Debris objects in space refer to the collection of defunct objects orbiting the Earth. Examples of debris include non-operational satellites, rocket bodies, and fragments generated from explosions, collisions, or faulty payload assembly.

Loading next visibility...
Identifier
54526, 2022-151KE
Orbit
SSO
Country
Flag of CNCN / PRC
Related business
Manufacturer
SAST
Mission
Spacecraft
Bus & Motor
Unknown
Mass
Unknown
Launch date (UTC)
2022-11-11 (4 years ago)
Launch vehicle
Unknown
Launch site
Taiyaun Space Center, China (TSC)
Object type
Payload
Rocket body
Debris
Shape & HBR
Unknown shape, 0.3 m
Radar Cross Section
Medium (>0.1 m² and <1 m²)

Expand to show TLE details & history
Last TLE update: 14 hours ago

TLE from 14 hours ago
0 CZ-6A DEB
1 54526U 22151KE  26235.45787671  .00000145  00000-0  10495-3 0  9998
2 54526  98.8453 233.0628 0054524 170.2072 190.0175 14.10152992194173
Epoch: 2026-08-23T10:59Z
TLE epoch observation values (Epoch: 2026-08-23T10:59:20.547Z)
Latitude
0.00001°
Longitude
96.47354°
Altitude
900.616 km
Speed
7.382 km/s
True Right ascension
15h 32m 15s
True Declination
0° 00' 00"
Sunlit
Object was in daylight at epoch
Visualization orbit readout
Latitude
Unknown
Longitude
Unknown
Altitude
Unknown
Speed
Unknown
Apparent Right ascension
Unknown
Apparent Declination
Unknown
Sunlit
N/A
Visualization observer readout
Local Sidereal Time
15:53:08
Azimuth
Unknown
Elevation
Unknown
Doppler factor
Unknown
Orbital elements
Apogee altitude
895.47 km
Perigee altitude
816.583 km
Semi-major axis
7,234.163 km
Eccentricity
0.00545
Inclination
98.8453°
RAAN
233.0628°
Arg. of periapsis
170.2072°
True anomaly
189.90954°
Mean anomaly
190.0175°
Eccentric anomaly
189.96345°
Mean motion
3.52745 °/min
Orbital period
102.06 mins
BSTAR
0.00010495
Loading maneuver chart data...
Computing Atmospheric mass density...

Documentation

Showing up to 5 results
|